EZY4PH EGJJ-EINN

Flight info

Callsign EZY4PH
Flight time 0h 54m
Altitude 26000
Route SKERY DCT BANBA DCT TIPUR TIPUR2E
Aircraft A320/M-SDE3FGHIRWY/LB1

Departure

Time 2026-05-08 19:03
Airport Jersey Airport (EGJJ)

Arrival

Time 2026-05-08 19:58
Airport Shannon Airport (EINN)
Time Latitude Longitude Altitude Speed Heading
2026-05-08 18:40 49.20481 -2.19565 284 ft 0 kts 15°
2026-05-08 18:50 49.20479 -2.19566 284 ft 2 kts 15°
2026-05-08 18:51 49.20454 -2.19572 284 ft 4 kts 354°
2026-05-08 18:51 49.20430 -2.19562 286 ft 4 kts 314°
2026-05-08 18:51 49.20422 -2.19541 290 ft 1 kts 284°
2026-05-08 18:51 49.20421 -2.19537 290 ft 0 kts 284°
2026-05-08 18:55 49.20437 -2.19631 288 ft 11 kts 284°
2026-05-08 18:55 49.20437 -2.19780 284 ft 12 kts 267°
2026-05-08 18:55 49.20439 -2.19900 284 ft 10 kts 298°
2026-05-08 18:56 49.20498 -2.19932 284 ft 8 kts 329°
2026-05-08 18:56 49.20520 -2.20003 289 ft 7 kts 288°
2026-05-08 18:56 49.20535 -2.20076 288 ft 11 kts 287°
2026-05-08 18:56 49.20560 -2.20199 284 ft 12 kts 287°
2026-05-08 18:57 49.20582 -2.20315 284 ft 11 kts 287°
2026-05-08 18:57 49.20595 -2.20385 288 ft 10 kts 286°
2026-05-08 18:57 49.20619 -2.20513 284 ft 6 kts 283°
2026-05-08 18:57 49.20620 -2.20518 284 ft 0 kts 283°
2026-05-08 19:01 49.20620 -2.20519 269 ft 1 kts 283°
2026-05-08 19:01 49.20625 -2.20576 284 ft 9 kts 275°
2026-05-08 19:01 49.20631 -2.20658 284 ft 7 kts 284°
2026-05-08 19:02 49.20668 -2.20705 284 ft 7 kts 352°
2026-05-08 19:02 49.20704 -2.20661 283 ft 8 kts 75°
2026-05-08 19:02 49.20708 -2.20634 286 ft 0 kts 81°
2026-05-08 19:02 49.20713 -2.20570 283 ft 34 kts 83°
2026-05-08 19:03 49.20783 -2.19734 285 ft 120 kts 82°
2026-05-08 19:03 49.20868 -2.18746 322 ft 159 kts 82°
2026-05-08 19:03 49.20896 -2.18281 415 ft 167 kts 87°
2026-05-08 19:03 49.20948 -2.16560 1179 ft 166 kts 85°
2026-05-08 19:04 49.21081 -2.14817 2025 ft 168 kts 83°
2026-05-08 19:04 49.21350 -2.13022 2525 ft 179 kts 72°
2026-05-08 19:04 49.21952 -2.11334 3014 ft 187 kts 57°
2026-05-08 19:04 49.22873 -2.09875 3494 ft 198 kts 42°
2026-05-08 19:05 49.24151 -2.08783 3799 ft 226 kts 22°
2026-05-08 19:05 49.25782 -2.08368 4193 ft 251 kts
2026-05-08 19:05 49.27501 -2.08941 4839 ft 262 kts 338°
2026-05-08 19:05 49.29010 -2.10477 5028 ft 263 kts 316°
2026-05-08 19:06 49.30371 -2.12479 5451 ft 280 kts 315°
2026-05-08 19:06 49.31762 -2.14545 6329 ft 285 kts 314°
2026-05-08 19:06 49.32222 -2.15229 6615 ft 287 kts 315°
2026-05-08 19:06 49.33056 -2.16484 7122 ft 288 kts 314°
2026-05-08 19:07 49.34448 -2.18559 8052 ft 290 kts 314°
2026-05-08 19:07 49.35911 -2.20714 8968 ft 294 kts 314°
2026-05-08 19:07 49.37402 -2.22902 9911 ft 297 kts 315°
2026-05-08 19:07 49.38924 -2.25146 10408 ft 315 kts 314°
2026-05-08 19:08 49.40535 -2.27533 10991 ft 326 kts 314°
2026-05-08 19:08 49.41033 -2.28272 11233 ft 327 kts 314°
2026-05-08 19:08 49.42397 -2.30293 11926 ft 330 kts 314°
2026-05-08 19:08 49.44072 -2.32777 12781 ft 332 kts 314°
2026-05-08 19:09 49.45738 -2.35255 13620 ft 335 kts 313°
2026-05-08 19:09 49.47418 -2.37756 14356 ft 338 kts 314°
2026-05-08 19:09 49.49114 -2.40286 15060 ft 342 kts 314°
2026-05-08 19:09 49.50832 -2.42848 15784 ft 344 kts 314°
2026-05-08 19:10 49.52555 -2.45418 16506 ft 347 kts 314°
2026-05-08 19:10 49.54296 -2.48019 17202 ft 351 kts 314°
2026-05-08 19:10 49.56065 -2.50664 17892 ft 354 kts 314°
2026-05-08 19:10 49.57841 -2.53327 18528 ft 358 kts 314°
2026-05-08 19:11 49.59638 -2.56021 19093 ft 362 kts 314°
2026-05-08 19:11 49.60840 -2.57825 19459 ft 365 kts 314°
2026-05-08 19:11 49.62669 -2.60574 20013 ft 369 kts 314°
2026-05-08 19:11 49.64514 -2.63351 20563 ft 374 kts 314°
2026-05-08 19:12 49.67010 -2.67101 21289 ft 379 kts 314°
2026-05-08 19:12 49.68286 -2.69019 21655 ft 382 kts 314°
2026-05-08 19:12 49.70197 -2.71897 22201 ft 387 kts 314°
2026-05-08 19:12 49.72127 -2.74813 22745 ft 391 kts 313°
2026-05-08 19:13 49.74085 -2.77776 23293 ft 395 kts 313°
2026-05-08 19:13 49.76055 -2.80760 23796 ft 399 kts 313°
2026-05-08 19:13 49.78046 -2.83779 24269 ft 402 kts 313°
2026-05-08 19:13 49.80050 -2.86824 24767 ft 405 kts 313°
2026-05-08 19:14 49.83341 -2.91828 25564 ft 408 kts 313°
2026-05-08 19:14 49.87425 -2.98042 26044 ft 410 kts 313°
2026-05-08 19:14 49.94260 -3.08459 26027 ft 353 kts 313°
2026-05-08 19:14 50.01167 -3.19092 26059 ft 362 kts 313°
2026-05-08 19:15 50.03691 -3.22849 26050 ft 362 kts 314°
2026-05-08 19:15 50.05522 -3.25534 26054 ft 362 kts 314°
2026-05-08 19:15 50.07332 -3.28184 26054 ft 362 kts 314°
2026-05-08 19:15 50.09166 -3.30879 26051 ft 362 kts 314°
2026-05-08 19:16 50.10996 -3.33577 26055 ft 362 kts 314°
2026-05-08 19:16 50.12822 -3.36279 26054 ft 362 kts 314°
2026-05-08 19:16 50.15002 -3.39512 26061 ft 362 kts 313°
2026-05-08 19:16 50.22058 -3.50047 26046 ft 359 kts 313°
2026-05-08 19:17 50.29244 -3.60824 26046 ft 359 kts 313°
2026-05-08 19:17 50.36455 -3.71686 26065 ft 360 kts 313°
2026-05-08 19:17 50.39311 -3.75954 26069 ft 360 kts 313°
2026-05-08 19:17 50.42770 -3.81203 26066 ft 360 kts 312°
2026-05-08 19:18 50.46329 -3.86635 26070 ft 361 kts 312°
2026-05-08 19:18 50.49931 -3.92120 26062 ft 360 kts 312°
2026-05-08 19:18 50.54224 -3.98650 26065 ft 360 kts 312°
2026-05-08 19:18 50.61407 -4.09618 26082 ft 360 kts 312°
2026-05-08 19:19 50.68593 -4.20658 26084 ft 360 kts 312°
2026-05-08 19:19 50.75769 -4.31735 26058 ft 360 kts 311°
2026-05-08 19:19 50.82925 -4.42818 26077 ft 360 kts 311°
2026-05-08 19:19 50.90072 -4.53937 26075 ft 360 kts 311°
2026-05-08 19:20 50.97190 -4.65105 26076 ft 359 kts 311°
2026-05-08 19:20 51.01897 -4.72506 26071 ft 359 kts 311°
2026-05-08 19:20 51.11405 -4.87487 26061 ft 360 kts 311°
2026-05-08 19:20 51.18546 -4.98788 26064 ft 360 kts 310°
2026-05-08 19:21 51.25636 -5.10068 26090 ft 360 kts 310°
2026-05-08 19:21 51.32631 -5.21265 26083 ft 359 kts 310°
2026-05-08 19:21 51.39656 -5.32587 26076 ft 358 kts 310°
2026-05-08 19:21 51.46665 -5.43901 26101 ft 357 kts 310°
2026-05-08 19:22 51.51271 -5.51370 26095 ft 356 kts 309°
2026-05-08 19:22 51.53017 -5.54209 26090 ft 356 kts 309°
2026-05-08 19:22 51.54751 -5.57024 26091 ft 356 kts 309°
2026-05-08 19:22 51.56495 -5.59861 26091 ft 355 kts 309°
2026-05-08 19:23 51.58231 -5.62695 26091 ft 355 kts 309°
2026-05-08 19:23 51.59963 -5.65526 26092 ft 355 kts 309°
2026-05-08 19:23 51.61697 -5.68357 26092 ft 355 kts 309°
2026-05-08 19:23 51.63430 -5.71189 26085 ft 355 kts 309°
2026-05-08 19:24 51.65155 -5.74015 26083 ft 355 kts 309°
2026-05-08 19:24 51.66885 -5.76853 26097 ft 354 kts 309°
2026-05-08 19:24 51.68614 -5.79693 26097 ft 354 kts 309°
2026-05-08 19:24 51.70338 -5.82528 26114 ft 354 kts 309°
2026-05-08 19:25 51.72063 -5.85367 26107 ft 354 kts 309°
2026-05-08 19:25 51.73785 -5.88201 26108 ft 354 kts 309°
2026-05-08 19:25 51.75489 -5.91008 26104 ft 354 kts 309°
2026-05-08 19:25 51.78287 -5.95627 26102 ft 353 kts 309°
2026-05-08 19:26 51.81713 -6.01295 26096 ft 353 kts 309°
2026-05-08 19:26 51.85154 -6.07008 26097 ft 353 kts 309°
2026-05-08 19:26 51.88534 -6.12631 26093 ft 353 kts 309°
2026-05-08 19:26 51.91959 -6.18350 26102 ft 353 kts 308°
2026-05-08 19:27 51.95242 -6.24069 26099 ft 348 kts 301°
2026-05-08 19:27 51.97998 -6.30574 25812 ft 362 kts 316°
2026-05-08 19:27 52.00487 -6.32785 25182 ft 377 kts 330°
2026-05-08 19:27 52.02593 -6.35039 25310 ft 354 kts 307°
2026-05-08 19:28 52.03816 -6.38353 25477 ft 337 kts 280°
2026-05-08 19:28 52.04277 -6.42051 25629 ft 334 kts 275°
2026-05-08 19:28 52.04674 -6.45725 25774 ft 334 kts 275°
2026-05-08 19:28 52.05073 -6.49437 25919 ft 334 kts 275°
2026-05-08 19:29 52.05562 -6.53140 26051 ft 338 kts 285°
2026-05-08 19:29 52.06628 -6.56600 26098 ft 344 kts 293°
2026-05-08 19:29 52.07813 -6.60032 26104 ft 345 kts 294°
2026-05-08 19:29 52.08981 -6.63377 26105 ft 345 kts 294°
2026-05-08 19:30 52.10164 -6.66768 25998 ft 346 kts 294°
2026-05-08 19:30 52.11358 -6.70205 25351 ft 350 kts 294°
2026-05-08 19:30 52.12555 -6.73670 24861 ft 350 kts 294°
2026-05-08 19:30 52.13739 -6.77111 24424 ft 348 kts 294°
2026-05-08 19:31 52.14915 -6.80540 24005 ft 345 kts 294°
2026-05-08 19:31 52.16080 -6.83952 23579 ft 343 kts 294°
2026-05-08 19:31 52.17236 -6.87342 23085 ft 340 kts 294°
2026-05-08 19:31 52.18388 -6.90712 22629 ft 338 kts 294°
2026-05-08 19:32 52.19525 -6.94046 22190 ft 336 kts 294°
2026-05-08 19:32 52.20640 -6.97321 21771 ft 334 kts 294°
2026-05-08 19:32 52.21765 -7.00626 21336 ft 332 kts 295°
2026-05-08 19:32 52.22875 -7.03895 20919 ft 330 kts 295°
2026-05-08 19:33 52.23981 -7.07160 20507 ft 328 kts 295°
2026-05-08 19:33 52.25097 -7.10455 20101 ft 326 kts 295°
2026-05-08 19:33 52.26188 -7.13683 19710 ft 324 kts 295°
2026-05-08 19:33 52.27257 -7.16855 19328 ft 322 kts 295°
2026-05-08 19:34 52.28348 -7.20105 18947 ft 321 kts 295°
2026-05-08 19:34 52.29417 -7.23289 18568 ft 319 kts 295°
2026-05-08 19:34 52.30467 -7.26420 18179 ft 318 kts 295°
2026-05-08 19:34 52.31530 -7.29580 17734 ft 317 kts 295°
2026-05-08 19:35 52.32604 -7.32773 17329 ft 316 kts 296°
2026-05-08 19:35 52.33645 -7.35874 16927 ft 315 kts 296°
2026-05-08 19:35 52.34681 -7.38967 16542 ft 313 kts 296°
2026-05-08 19:35 52.35726 -7.42088 16170 ft 312 kts 296°
2026-05-08 19:36 52.36769 -7.45209 15798 ft 311 kts 296°
2026-05-08 19:36 52.37804 -7.48307 15445 ft 310 kts 296°
2026-05-08 19:36 52.38839 -7.51411 15082 ft 309 kts 297°
2026-05-08 19:36 52.39868 -7.54502 14688 ft 310 kts 297°
2026-05-08 19:37 52.40903 -7.57620 14296 ft 311 kts 296°
2026-05-08 19:37 52.41932 -7.60731 13909 ft 312 kts 297°
2026-05-08 19:37 52.42969 -7.63862 13476 ft 312 kts 297°
2026-05-08 19:37 52.44003 -7.66983 13045 ft 312 kts 297°
2026-05-08 19:38 52.45036 -7.70103 12622 ft 312 kts 297°
2026-05-08 19:38 52.46071 -7.73239 12208 ft 311 kts 297°
2026-05-08 19:38 52.47099 -7.76353 11793 ft 311 kts 297°
2026-05-08 19:38 52.48124 -7.79466 11385 ft 310 kts 298°
2026-05-08 19:39 52.49148 -7.82581 10981 ft 309 kts 298°
2026-05-08 19:39 52.50160 -7.85661 10537 ft 310 kts 298°
2026-05-08 19:39 52.51183 -7.88782 10096 ft 308 kts 298°
2026-05-08 19:39 52.52179 -7.91823 9588 ft 298 kts 298°
2026-05-08 19:40 52.53150 -7.94794 9044 ft 292 kts 298°
2026-05-08 19:40 52.54109 -7.97739 8629 ft 291 kts 298°
2026-05-08 19:40 52.55056 -8.00652 8248 ft 288 kts 298°
2026-05-08 19:40 52.55982 -8.03548 7852 ft 285 kts 298°
2026-05-08 19:41 52.56901 -8.06386 7472 ft 283 kts 298°
2026-05-08 19:41 52.57790 -8.09250 7132 ft 279 kts 292°
2026-05-08 19:41 52.58333 -8.12254 6897 ft 271 kts 280°
2026-05-08 19:41 52.58477 -8.15333 6554 ft 269 kts 267°
2026-05-08 19:42 52.58232 -8.18310 6378 ft 259 kts 258°
2026-05-08 19:42 52.57882 -8.21203 6011 ft 257 kts 259°
2026-05-08 19:42 52.57539 -8.24097 5734 ft 251 kts 259°
2026-05-08 19:42 52.57213 -8.26860 5498 ft 244 kts 260°
2026-05-08 19:43 52.56891 -8.29578 5121 ft 244 kts 261°
2026-05-08 19:43 52.56569 -8.32254 4996 ft 233 kts 260°
2026-05-08 19:43 52.56256 -8.34823 4795 ft 226 kts 260°
2026-05-08 19:43 52.55951 -8.37332 4609 ft 220 kts 260°
2026-05-08 19:44 52.55657 -8.39755 4409 ft 213 kts 260°
2026-05-08 19:44 52.55370 -8.42119 4195 ft 209 kts 261°
2026-05-08 19:44 52.55079 -8.44511 4155 ft 218 kts 260°
2026-05-08 19:44 52.54777 -8.46976 4151 ft 221 kts 260°
2026-05-08 19:45 52.54474 -8.49464 4155 ft 222 kts 260°
2026-05-08 19:45 52.54171 -8.51951 4157 ft 223 kts 260°
2026-05-08 19:45 52.53865 -8.54448 4157 ft 223 kts 260°
2026-05-08 19:45 52.53558 -8.56957 4164 ft 228 kts 260°
2026-05-08 19:46 52.53246 -8.59533 4160 ft 232 kts 260°
2026-05-08 19:46 52.52928 -8.62137 4161 ft 233 kts 260°
2026-05-08 19:46 52.52283 -8.67354 4161 ft 233 kts 260°
2026-05-08 19:47 52.51965 -8.69931 4162 ft 233 kts 259°
2026-05-08 19:47 52.51642 -8.72540 4162 ft 233 kts 259°
2026-05-08 19:47 52.51317 -8.75151 4162 ft 233 kts 260°
2026-05-08 19:47 52.50997 -8.77701 4163 ft 233 kts 259°
2026-05-08 19:48 52.50672 -8.80302 4162 ft 233 kts 259°
2026-05-08 19:48 52.50347 -8.82910 4164 ft 233 kts 260°
2026-05-08 19:48 52.50020 -8.85519 4165 ft 235 kts 259°
2026-05-08 19:48 52.49528 -8.89460 4162 ft 243 kts 260°
2026-05-08 19:49 52.48844 -8.94917 4162 ft 244 kts 260°
2026-05-08 19:49 52.48279 -8.99374 4160 ft 243 kts 259°
2026-05-08 19:49 52.47944 -9.01999 4157 ft 226 kts 259°
2026-05-08 19:49 52.47631 -9.04456 4161 ft 215 kts 260°
2026-05-08 19:50 52.47368 -9.06847 4161 ft 212 kts 269°
2026-05-08 19:50 52.47485 -9.09247 4164 ft 210 kts 287°
2026-05-08 19:50 52.48021 -9.11436 4164 ft 206 kts 305°
2026-05-08 19:50 52.48907 -9.13249 4165 ft 202 kts 322°
2026-05-08 19:51 52.49990 -9.14652 4158 ft 193 kts 327°
2026-05-08 19:51 52.51044 -9.15999 4166 ft 191 kts 326°
2026-05-08 19:51 52.52092 -9.17344 4167 ft 192 kts 326°
2026-05-08 19:51 52.53141 -9.18691 3950 ft 192 kts 327°
2026-05-08 19:52 52.53844 -9.19590 3783 ft 193 kts 328°
2026-05-08 19:52 52.55015 -9.20508 3541 ft 184 kts 354°
2026-05-08 19:52 52.56261 -9.20458 3281 ft 177 kts 20°
2026-05-08 19:52 52.57320 -9.19538 3088 ft 171 kts 43°
2026-05-08 19:53 52.58048 -9.18144 3022 ft 173 kts 52°
2026-05-08 19:53 52.58641 -9.16898 3061 ft 165 kts 52°
2026-05-08 19:53 52.59199 -9.15727 3036 ft 153 kts 52°
2026-05-08 19:53 52.59835 -9.14389 3007 ft 139 kts 52°
2026-05-08 19:54 52.60418 -9.13160 2896 ft 134 kts 52°
2026-05-08 19:54 52.60985 -9.11967 2751 ft 131 kts 52°
2026-05-08 19:54 52.61569 -9.10735 2582 ft 142 kts 52°
2026-05-08 19:54 52.62181 -9.09444 2391 ft 142 kts 52°
2026-05-08 19:55 52.62770 -9.08203 2202 ft 134 kts 52°
2026-05-08 19:55 52.63325 -9.07031 2040 ft 130 kts 52°
2026-05-08 19:55 52.63882 -9.05857 1860 ft 127 kts 52°
2026-05-08 19:55 52.64421 -9.04718 1680 ft 128 kts 52°
2026-05-08 19:56 52.64973 -9.03551 1503 ft 127 kts 51°
2026-05-08 19:56 52.65512 -9.02411 1327 ft 127 kts 51°
2026-05-08 19:56 52.66056 -9.01262 1143 ft 127 kts 51°
2026-05-08 19:56 52.66600 -9.00111 971 ft 127 kts 51°
2026-05-08 19:57 52.67133 -8.98983 799 ft 126 kts 49°
2026-05-08 19:57 52.67678 -8.97827 626 ft 127 kts 50°
2026-05-08 19:57 52.68221 -8.96678 457 ft 127 kts 46°
2026-05-08 19:57 52.68764 -8.95516 303 ft 128 kts 47°
2026-05-08 19:58 52.69297 -8.94377 95 ft 126 kts 48°
2026-05-08 19:58 52.69806 -8.93318 29 ft 93 kts 51°
2026-05-08 19:58 52.69987 -8.92932 22 ft 26 kts 52°
2026-05-08 19:58 52.70100 -8.92693 20 ft 27 kts 52°
2026-05-08 19:59 52.70198 -8.92489 17 ft 23 kts 51°
2026-05-08 19:59 52.70302 -8.92270 17 ft 25 kts 54°
2026-05-08 19:59 52.70420 -8.92005 15 ft 36 kts 53°
2026-05-08 19:59 52.70580 -8.91671 10 ft 32 kts 51°
2026-05-08 20:00 52.70732 -8.91353 9 ft 32 kts 53°
2026-05-08 20:00 52.70730 -8.91167 8 ft 4 kts 178°
2026-05-08 20:00 52.70684 -8.91158 9 ft 15 kts 172°
2026-05-08 20:00 52.70526 -8.91107 10 ft 27 kts 168°
2026-05-08 20:01 52.70391 -8.91065 10 ft 15 kts 171°
2026-05-08 20:01 52.70294 -8.91035 11 ft 14 kts 167°
2026-05-08 20:01 52.70205 -8.91009 11 ft 12 kts 181°
2026-05-08 20:01 52.70127 -8.91045 14 ft 11 kts 199°
2026-05-08 20:02 52.70059 -8.91084 14 ft 12 kts 198°
2026-05-08 20:02 52.69969 -8.91134 13 ft 13 kts 198°
2026-05-08 20:02 52.69888 -8.91179 14 ft 12 kts 199°
2026-05-08 20:02 52.69810 -8.91223 16 ft 15 kts 199°
2026-05-08 20:03 52.69663 -8.91303 16 ft 25 kts 198°
2026-05-08 20:03 52.69522 -8.91379 19 ft 24 kts 199°
2026-05-08 20:03 52.69370 -8.91464 19 ft 22 kts 198°
2026-05-08 20:03 52.69289 -8.91509 19 ft 7 kts 198°
2026-05-08 20:04 52.69252 -8.91558 20 ft 8 kts 250°
2026-05-08 20:04 52.69273 -8.91637 20 ft 9 kts 307°
2026-05-08 20:04 52.69319 -8.91724 20 ft 11 kts 317°
2026-05-08 20:04 52.69398 -8.91776 21 ft 14 kts 335°
2026-05-08 20:05 52.69442 -8.91918 20 ft 15 kts 266°
2026-05-08 20:05 52.69414 -8.91968 22 ft 1 kts 186°
2026-05-08 20:05 52.69379 -8.91956 21 ft 5 kts 186°
2026-05-08 20:05 52.69362 -8.91959 22 ft 0 kts 186°